Weather in Alytus

Lithuania     54°24′37″N   24°01′28″E
temp.,
°C
wind,
m/s
gust,
m/s
humid.,
%
clouds,
%
prec.,
mm/h
press.,
hPa
HPBL,
m
7 august, sun
sun700:00+11wnw3693100 0.0 1023122
03:00+10wnw35940 0.0 102396
06:00+9wnw23930 0.0 102354
09:00+14wnw24770 0.0 1023293
12:00+19nw34630 0.0 10241289
15:00+20wnw335958 0.3 10231500
18:00+19nw446620 0.4 10231185
21:00+15nw228484 0.6 102311
8 august, mon
mon800:00+12nw228497 0.0 102429
03:00+10wnw228963 0.0 102411
06:00+9nw229310 0.0 102512
09:00+15nw23745 0.0 1025303
12:00+19nw23605 0.0 10251097
15:00+20wnw335345 0.0 10241511
18:00+20nw23585 0.0 10241278
21:00+15n238396 0.1 102548
9 august, tue
tue900:00+14nnw228373 0.0 102530
03:00+12nw119180 0.0 102610
06:00+11nw22945 0.0 102621
09:00+16nnw23809 0.0 1026323
12:00+19nnw227030 0.3 1026999
15:00+20nnw22707 3.3 1025978
18:00+20n23745 1.6 1025800
21:00+16n22911 1.9 102538
10 august, wed
wed1000:00+14n22930 0.0 102618
03:00+13nne22935 0.0 102612
06:00+12nne22940 0.0 102624
09:00+16nne22810 0.0 1027239
12:00+21nne22621 0.0 1026839
15:00+23nne115255 0.1 10261719
18:00+21n2260100 0.0 1026740
21:00+17nne2280100 0.1 102519
11 august, thu
thu1100:00+15ese228556 0.0 102612
03:00+14se228640 0.0 102614
06:00+13se228595 0.0 102611
09:00+18sse12695 0.0 1027211
12:00+22sw12575 0.0 1026876
15:00+24wnw22516 0.0 10251714
18:00+23wnw12539 0.0 10251288
21:00+18e117295 0.0 102511